TimeEST,TemperatureF,Dew PointF,Humidity,Sea Level PressureIn,VisibilityMPH,Wind Direction,Wind SpeedMPH,Gust SpeedMPH,PrecipitationIn,Events,Conditions,WindDirDegrees,DateUTC
12:56 AM,50.0,48.9,96,29.94,4.0,South,4.6,-,N/A,,Partly Cloudy,170,2012-12-05 05:56:00
1:56 AM,51.1,48.9,92,29.92,4.0,South,3.5,-,0.00,,Overcast,190,2012-12-05 06:56:00
2:56 AM,52.0,48.9,89,29.90,5.0,Calm,Calm,-,0.00,,Overcast,0,2012-12-05 07:56:00
3:56 AM,54.0,51.1,90,29.91,7.0,West,8.1,-,0.02,,Mostly Cloudy,280,2012-12-05 08:56:00
4:56 AM,53.1,48.0,83,29.92,10.0,NW,15.0,23.0,N/A,,Overcast,310,2012-12-05 09:56:00
5:56 AM,51.1,45.0,80,29.94,10.0,WNW,10.4,-,0.00,,Mostly Cloudy,290,2012-12-05 10:56:00
6:56 AM,51.1,42.1,71,29.97,10.0,WNW,18.4,24.2,N/A,,Mostly Cloudy,300,2012-12-05 11:56:00
7:56 AM,50.0,41.0,71,30.00,10.0,WNW,16.1,-,N/A,,Scattered Clouds,300,2012-12-05 12:56:00
9:56 AM,48.9,37.0,64,30.01,10.0,WNW,20.7,32.2,N/A,,Partly Cloudy,300,2012-12-05 14:56:00
10:56 AM,50.0,35.1,57,29.99,10.0,WNW,20.7,29.9,N/A,,Partly Cloudy,300,2012-12-05 15:56:00
11:56 AM,50.0,33.1,52,29.99,10.0,WNW,18.4,31.1,N/A,,Partly Cloudy,300,2012-12-05 16:56:00
12:56 PM,51.1,32.0,48,29.99,10.0,WNW,21.9,31.1,N/A,,Partly Cloudy,300,2012-12-05 17:56:00
1:56 PM,52.0,30.9,45,29.99,10.0,NW,16.1,23.0,N/A,,Partly Cloudy,310,2012-12-05 18:56:00
2:56 PM,48.9,30.0,48,30.02,10.0,NW,17.3,-,N/A,,Scattered Clouds,310,2012-12-05 19:56:00
3:56 PM,46.0,28.9,51,30.05,10.0,NW,17.3,31.1,N/A,,Partly Cloudy,320,2012-12-05 20:56:00
4:56 PM,43.0,24.1,47,30.09,10.0,NW,25.3,35.7,N/A,,Scattered Clouds,320,2012-12-05 21:56:00
5:56 PM,39.9,19.0,43,30.12,10.0,WNW,24.2,34.5,N/A,,Partly Cloudy,300,2012-12-05 22:56:00
6:56 PM,39.0,21.0,49,30.15,10.0,WNW,15.0,24.2,N/A,,Mostly Cloudy,300,2012-12-05 23:56:00
7:56 PM,37.9,21.0,51,30.17,10.0,WNW,17.3,31.1,N/A,,Mostly Cloudy,300,2012-12-06 00:56:00
8:56 PM,36.0,19.9,52,30.17,10.0,NW,20.7,-,N/A,,Clear,320,2012-12-06 01:56:00
9:56 PM,35.1,19.0,52,30.19,10.0,NW,16.1,26.5,N/A,,Clear,310,2012-12-06 02:56:00
10:56 PM,34.0,19.0,54,30.20,10.0,NW,13.8,-,N/A,,Clear,310,2012-12-06 03:56:00
11:56 PM,33.1,19.0,56,30.21,10.0,NNW,16.1,-,N/A,,Clear,330,2012-12-06 04:56:00